Location: Casilda
(33.0440°S, 61.1680°W)
Time: 17:58:05
(UTC-03:00)

ISS - Pass Details

Date: 10 November 2019
Orbit: 412 x 421 km, 51.6° (Epoch: 15 November)

Event Time Altitude Azimuth Distance (km) Brightness Sun altitude
Rises 20:24:56 0° 249° (WSW) 2,369 2.3 -9.5°
Reaches altitude 10° 20:28:02 10° 280° (W) 1,498 -0.1 -10.0°
Maximum altitude 20:29:29 12° 306° (NW) 1,360 -0.8 -10.3°
Drops below altitude 10° 20:30:56 10° 332° (NNW) 1,490 -1.0 -10.6°
Enters shadow 20:33:42 - 1° (N) 2,241 -0.4 -11.1°
